Weather History for Sand Point, AK

Change the Weather History Date:

Friday, December 14, 2012

  Actual Average Record
Temperature  
Mean Temperature 32 °F -  
Max Temperature 39 °F 32 °F 43 °F (1988)
Min Temperature 26 °F 26 °F 8 °F (1999)
Degree Days  
Heating Degree Days 32    
Moisture  
Dew Point 29 °F    
Average Humidity 83    
Maximum Humidity 93    
Minimum Humidity 75    
Precipitation  
Precipitation 0.00 in - - ()
Sea Level Pressure  
Sea Level Pressure 29.48 in    
Wind  
Wind Speed 11 mph (West)    
Max Wind Speed 22 mph    
Max Gust Speed 29 mph    
Visibility 10 miles    
Events      
Averages and records for this station are not official NWS values.
T = Trace of Precipitation, MM = Missing Value Source: NWS Daily Summary

Daily Weather History Graph

Daily Weather History Graph

Search for Another Location

Airport:

Trip Planner

Search our weather history database for the weather conditions in past years. The results will help you decide how hot, cold, wet, or windy it might be!

Date:

Astronomy

Dec. 14, 2012 Rise Set
Actual Time 10:02 AM AKST 5:11 PM AKST
Civil Twilight 9:16 AM AKST 5:57 PM AKST
Nautical Twilight 8:28 AM AKST 6:45 PM AKST
Astronomical Twilight 7:43 AM AKST 7:30 PM AKST
Moon 11:05 AM AKST (12/14) 7:32 PM AKST (12/14)
Length of Visible Light 8h 40m
Length of Day
7h 08m
Waxing Crescent, 3% of the Moon is Illuminated
Dec 14
Waxing Crescent
Dec 19
First Quarter
Dec 28
Full
Jan 4
Last Quarter
Jan 11
New

Hourly Weather History & Observations

Time (AKST) Temp. Windchill Dew Point Humidity Pressure Visibility Wind Dir Wind Speed Gust Speed Precip Events Conditions
12:16 AM 35.6 °F 29.9 °F 33.8 °F 93% 29.43 in 10.0 mi West 6.9 mph - N/A   Partly Cloudy
12:36 AM 35.6 °F 29.2 °F 32.0 °F 87% 29.44 in 10.0 mi West 8.1 mph - N/A   Scattered Clouds
12:56 AM 33.8 °F 30.8 °F 32.0 °F 93% 29.43 in 10.0 mi West 3.5 mph - N/A   Mostly Cloudy
1:16 AM 35.6 °F 30.7 °F 33.8 °F 93% 29.44 in 10.0 mi West 5.8 mph - N/A   Mostly Cloudy
1:36 AM 35.6 °F - 32.0 °F 87% 29.45 in 10.0 mi Calm Calm - N/A   Overcast
1:56 AM 35.6 °F 30.7 °F 32.0 °F 87% 29.46 in 10.0 mi West 5.8 mph - N/A   Overcast
2:16 AM 35.6 °F 31.7 °F 32.0 °F 87% 29.45 in 10.0 mi West 4.6 mph - N/A   Overcast
2:36 AM 35.6 °F 31.7 °F 32.0 °F 87% 29.45 in 10.0 mi West 4.6 mph - N/A   Overcast
2:56 AM 35.6 °F - 32.0 °F 87% 29.45 in 10.0 mi Calm Calm - N/A   Overcast
3:16 AM 35.6 °F - 30.2 °F 81% 29.45 in 10.0 mi Calm Calm - N/A   Mostly Cloudy
3:36 AM 35.6 °F - 30.2 °F 81% 29.44 in 10.0 mi Calm Calm - N/A   Scattered Clouds
3:56 AM 35.6 °F 32.8 °F 30.2 °F 81% 29.43 in 10.0 mi SSE 3.5 mph - N/A   Mostly Cloudy
4:16 AM 35.6 °F 29.2 °F 30.2 °F 81% 29.44 in 10.0 mi South 8.1 mph - N/A   Mostly Cloudy
4:36 AM 35.6 °F 28.6 °F 32.0 °F 87% 29.44 in 10.0 mi South 9.2 mph - N/A   Overcast
4:56 AM 35.6 °F 31.7 °F 30.2 °F 81% 29.42 in 10.0 mi SE 4.6 mph - N/A   Mostly Cloudy
5:16 AM 35.6 °F 29.2 °F 30.2 °F 81% 29.42 in 10.0 mi SSW 8.1 mph - N/A   Scattered Clouds
5:36 AM 37.4 °F 30.3 °F 30.2 °F 75% 29.42 in 10.0 mi SSW 10.4 mph - N/A   Mostly Cloudy
5:56 AM 37.4 °F 30.3 °F 30.2 °F 75% 29.41 in 10.0 mi SW 10.4 mph - N/A   Scattered Clouds
6:16 AM 37.4 °F 30.8 °F 30.2 °F 75% 29.40 in 10.0 mi South 9.2 mph 16.1 mph N/A   Partly Cloudy
6:36 AM 35.6 °F 30.7 °F 30.2 °F 81% 29.40 in 10.0 mi South 5.8 mph - N/A   Clear
6:56 AM 37.4 °F 29.8 °F 32.0 °F 81% 29.40 in 10.0 mi SW 11.5 mph - N/A   Mostly Cloudy
7:16 AM 37.4 °F 32.1 °F 32.0 °F 81% 29.39 in 10.0 mi SSW 6.9 mph - N/A   Scattered Clouds
7:36 AM 37.4 °F 30.3 °F 33.8 °F 87% 29.38 in 10.0 mi SW 10.4 mph - N/A   Scattered Clouds
7:56 AM 37.4 °F 29.8 °F 33.8 °F 87% 29.38 in 10.0 mi SW 11.5 mph - N/A   Partly Cloudy
8:16 AM 39.2 °F 31.2 °F 33.8 °F 81% 29.38 in 10.0 mi SW 13.8 mph 20.7 mph N/A   Partly Cloudy
8:36 AM 37.4 °F 27.2 °F 33.8 °F 87% 29.37 in 10.0 mi SW 19.6 mph - N/A   Scattered Clouds
8:56 AM 39.2 °F 30.8 °F 33.8 °F 81% 29.37 in 10.0 mi WSW 15.0 mph 20.7 mph N/A   Scattered Clouds
9:16 AM 37.4 °F 28.9 °F 33.8 °F 87% 29.39 in 10.0 mi West 13.8 mph - N/A   Mostly Cloudy
9:36 AM 37.4 °F 28.2 °F 32.0 °F 81% 29.39 in 10.0 mi WSW 16.1 mph 28.8 mph N/A   Mostly Cloudy
9:56 AM 37.4 °F 28.5 °F 32.0 °F 81% 29.38 in 10.0 mi WSW 15.0 mph 23.0 mph N/A   Mostly Cloudy
10:16 AM 37.4 °F 26.6 °F 33.8 °F 87% 29.40 in 7.0 mi West 21.9 mph 27.6 mph N/A   Mostly Cloudy
10:36 AM 35.6 °F 26.2 °F 33.8 °F 93% 29.42 in 5.0 mi West 15.0 mph 23.0 mph N/A   Overcast
10:56 AM 35.6 °F 26.6 °F 33.8 °F 93% 29.42 in 10.0 mi West 13.8 mph - N/A   Mostly Cloudy
11:16 AM 35.6 °F 24.2 °F 32.0 °F 87% 29.44 in 6.0 mi West 21.9 mph 27.6 mph N/A   Mostly Cloudy
11:36 AM 33.8 °F 23.2 °F 32.0 °F 93% 29.45 in 9.0 mi WNW 17.3 mph 24.2 mph N/A   Mostly Cloudy
11:56 AM 33.8 °F 23.5 °F 30.2 °F 87% 29.45 in 10.0 mi West 16.1 mph - N/A   Mostly Cloudy
12:16 PM 35.6 °F 25.9 °F 28.4 °F 75% 29.45 in 10.0 mi WNW 16.1 mph 21.9 mph N/A   Mostly Cloudy
12:36 PM 35.6 °F 26.6 °F 28.4 °F 75% 29.46 in 10.0 mi WNW 13.8 mph 25.3 mph N/A   Scattered Clouds
12:56 PM 35.6 °F 26.2 °F 28.4 °F 75% 29.47 in 10.0 mi West 15.0 mph 26.5 mph N/A   Scattered Clouds
1:16 PM 35.6 °F 24.5 °F 28.4 °F 75% 29.46 in 10.0 mi WNW 20.7 mph 24.2 mph N/A   Overcast
1:36 PM 33.8 °F 22.8 °F 28.4 °F 81% 29.46 in 10.0 mi WNW 18.4 mph 25.3 mph N/A   Mostly Cloudy
1:56 PM 33.8 °F 23.2 °F 28.4 °F 81% 29.48 in 10.0 mi WNW 17.3 mph 26.5 mph N/A   Mostly Cloudy
2:16 PM 33.8 °F 23.2 °F 26.6 °F 75% 29.48 in 10.0 mi WNW 17.3 mph 25.3 mph N/A   Mostly Cloudy
2:36 PM 33.8 °F 22.2 °F 28.4 °F 81% 29.47 in 10.0 mi WNW 20.7 mph 24.2 mph N/A   Mostly Cloudy
2:56 PM 33.8 °F 23.2 °F 28.4 °F 81% 29.49 in 10.0 mi NW 17.3 mph 23.0 mph N/A   Mostly Cloudy
3:16 PM 33.8 °F 23.5 °F 28.4 °F 81% 29.49 in 10.0 mi WNW 16.1 mph 21.9 mph N/A   Mostly Cloudy
3:36 PM 33.8 °F 23.2 °F 26.6 °F 75% 29.49 in 10.0 mi NW 17.3 mph 23.0 mph N/A   Mostly Cloudy
3:56 PM 32.0 °F 20.1 °F 26.6 °F 80% 29.50 in 10.0 mi WNW 19.6 mph 24.2 mph N/A   Mostly Cloudy
4:16 PM 32.0 °F 20.1 °F 26.6 °F 80% 29.50 in 10.0 mi WNW 19.6 mph 28.8 mph N/A   Mostly Cloudy
4:36 PM 32.0 °F 21.2 °F 26.6 °F 80% 29.51 in 10.0 mi NW 16.1 mph - N/A   Mostly Cloudy
4:56 PM 32.0 °F 19.8 °F 26.6 °F 80% 29.51 in 10.0 mi WNW 20.7 mph 25.3 mph N/A   Mostly Cloudy
5:16 PM 30.2 °F 17.4 °F 26.6 °F 86% 29.52 in 10.0 mi WNW 20.7 mph 26.5 mph N/A   Mostly Cloudy
5:36 PM 30.2 °F 17.1 °F 26.6 °F 86% 29.52 in 10.0 mi NW 21.9 mph 27.6 mph N/A   Mostly Cloudy
5:56 PM 30.2 °F 17.8 °F 24.8 °F 80% 29.53 in 10.0 mi WNW 19.6 mph 25.3 mph N/A   Mostly Cloudy
6:16 PM 30.2 °F 18.9 °F 24.8 °F 80% 29.53 in 10.0 mi WNW 16.1 mph 23.0 mph N/A   Mostly Cloudy
6:36 PM 28.4 °F 16.2 °F 24.8 °F 86% 29.55 in 10.0 mi WNW 17.3 mph - N/A   Mostly Cloudy
6:56 PM 28.4 °F 16.6 °F 24.8 °F 86% 29.55 in 10.0 mi WNW 16.1 mph 23.0 mph N/A   Mostly Cloudy
7:16 PM 28.4 °F 16.2 °F 24.8 °F 86% 29.56 in 10.0 mi WNW 17.3 mph 25.3 mph N/A   Mostly Cloudy
7:36 PM 28.4 °F 15.8 °F 24.8 °F 86% 29.56 in 10.0 mi NW 18.4 mph 26.5 mph N/A   Mostly Cloudy
7:56 PM 28.4 °F 16.6 °F 24.8 °F 86% 29.57 in 10.0 mi NW 16.1 mph 26.5 mph N/A   Mostly Cloudy
8:16 PM 28.4 °F 15.4 °F 24.8 °F 86% 29.57 in 10.0 mi NW 19.6 mph 25.3 mph N/A   Clear
8:36 PM 28.4 °F 15.4 °F 23.0 °F 80% 29.58 in 10.0 mi NW 19.6 mph 25.3 mph N/A   Clear
8:56 PM 28.4 °F 14.7 °F 23.0 °F 80% 29.58 in 10.0 mi WNW 21.9 mph 26.5 mph N/A   Clear
9:16 PM 28.4 °F 16.2 °F 23.0 °F 80% 29.59 in 10.0 mi WNW 17.3 mph 28.8 mph N/A   Clear
9:36 PM 28.4 °F 15.4 °F 23.0 °F 80% 29.60 in 10.0 mi NW 19.6 mph 26.5 mph N/A   Scattered Clouds
9:56 PM 26.6 °F 12.7 °F 23.0 °F 86% 29.61 in 10.0 mi NW 20.7 mph 26.5 mph N/A   Overcast
10:16 PM 26.6 °F 14.7 °F 23.0 °F 86% 29.61 in 10.0 mi NW 15.0 mph 23.0 mph N/A   Overcast
10:36 PM 26.6 °F 13.4 °F 23.0 °F 86% 29.61 in 10.0 mi WNW 18.4 mph 23.0 mph N/A   Scattered Clouds
10:56 PM 26.6 °F 13.8 °F 23.0 °F 86% 29.61 in 10.0 mi NW 17.3 mph 25.3 mph N/A   Mostly Cloudy
11:16 PM 26.6 °F 15.2 °F 21.2 °F 80% 29.62 in 10.0 mi NW 13.8 mph 20.7 mph N/A   Overcast
11:36 PM 26.6 °F 13.8 °F 21.2 °F 80% 29.63 in 10.0 mi WNW 17.3 mph - N/A   Overcast
11:56 PM 26.6 °F 13.4 °F 21.2 °F 80% 29.64 in 10.0 mi WNW 18.4 mph 25.3 mph N/A   Overcast